Starlink 11330

operational
NORAD ID: 62011 Int'l Des: 2024-213 Owner: SPXS Country: US Constellation: starlink
LEOCIRCULAR

About Starlink 11330

Description loading...

Live Position

Loading 3D Globe...

Upcoming Passes

Altitude History

Altitude vs Time

uPlot chart will show altitude changes over time

Two-Line Element Set

1 62011U 24213D 25260.00952275 .00186414 00000-0 15061-2 0 9996
2 62011 53.1576 177.6709 0001162 64.3753 295.7385 15.69759563 47639
Epoch: Sep 17, 2025 • Age: 23 hours

Current Status

Altitude 365.1 km
Velocity 7.69 km/s
Sub-Earth Point -22.73°S, 172.3°E
Launch Date Nov 18, 2024
Age 0.8 years
Type internet

Technical Details

Classification Payload
Mass 960.00 kg
Dry Mass 910.00 kg
Total Mass 960.00 kg
Length 0.30 m
Diameter 4.10 m
Span 29.00 m
Shape Box + pan
Manufacturer SPXS
Bus Type Starlink V2MD
Phase Status In Orbit
Owner/State SPXS/US

Large Constellations

Loading constellations...